Precipitable_Water
1.39 1.41 1.40 1.41 1.40 1.40 1.40 1.42 1.41 1.42 1.40 1.36 1.33 1.30 1.27 1.18 1.08 1.00 1.02 1.00 0.97 0.97 0.98 0.96 0.93 0.93 0.95 0.95 0.93 1.00 1.06 1.12 1.17 1.27 1.37 1.46 1.55 1.61 1.64 1.65 1.66 1.67 1.69 1.71 1.70 1.73 1.73 1.76 1.77 1.77 1.79 1.75 1.69 1.65 1.65 1.65 1.65 1.64 1.60 1.60 1.54 1.49 1.49 1.49 1.43 1.44 1.34 1.26 1.30 1.27 1.31 1.40 1.44 1.41 1.38 1.40 1.41 1.43 1.42 1.36 1.33 1.26 1.25 1.25 1.27
1.45 1.40 1.39 1.41 1.41 1.39 1.38 1.38 1.39 1.34 1.36 1.37 1.31 1.30 1.30 1.27 1.16 1.07 1.06 1.02 0.96 0.93 0.94 0.95 0.95 0.91 0.88 0.88 0.92 0.97 1.01 1.05 1.09 1.20 1.31 1.43 1.52 1.58 1.61 1.63 1.65 1.65 1.67 1.68 1.69 1.70 1.70 1.71 1.69 1.70 1.73 1.72 1.72 1.72 1.68 1.64 1.63 1.62 1.61 1.54 1.57 1.50 1.44 1.44 1.39 1.34 1.20 1.15 1.10 1.12 1.20 1.30 1.37 1.39 1.36 1.38 1.39 1.39 1.39 1.35 1.31 1.27 1.24 1.27 1.27
1.35 1.33 1.33 1.33 1.37 1.38 1.35 1.34 1.36 1.39 1.40 1.37 1.36 1.33 1.32 1.30 1.26 1.19 1.10 1.03 0.99 0.97 0.95 0.91 0.95 0.97 0.92 0.91 0.91 0.94 1.03 1.09 1.15 1.21 1.30 1.38 1.47 1.55 1.59 1.61 1.62 1.62 1.65 1.67 1.65 1.67 1.68 1.68 1.66 1.68 1.68 1.69 1.65 1.64 1.63 1.59 1.57 1.58 1.60 1.51 1.48 1.52 1.50 1.51 1.41 1.34 1.15 1.19 1.18 1.11 1.01 1.02 1.19 1.26 1.32 1.33 1.37 1.40 1.37 1.33 1.33 1.33 1.33 1.34 1.31
1.29 1.27 1.26 1.30 1.32 1.34 1.34 1.31 1.32 1.38 1.41 1.39 1.38 1.34 1.34 1.32 1.31 1.27 1.18 1.10 1.04 1.02 0.97 0.95 0.96 0.98 0.99 0.98 0.97 0.95 0.95 1.03 1.13 1.21 1.23 1.30 1.37 1.49 1.55 1.58 1.59 1.59 1.61 1.63 1.63 1.64 1.66 1.64 1.65 1.63 1.63 1.67 1.65 1.60 1.59 1.55 1.56 1.55 1.56 1.57 1.52 1.44 1.44 1.41 1.43 1.35 1.27 1.17 0.96 0.97 0.97 0.95 0.87 0.99 1.11 1.27 1.37 1.39 1.40 1.38 1.38 1.39 1.42 1.44 1.44
1.32 1.31 1.27 1.25 1.25 1.27 1.28 1.31 1.34 1.32 1.35 1.36 1.38 1.38 1.35 1.33 1.33 1.32 1.27 1.19 1.12 1.07 1.04 1.03 1.01 0.98 0.99 1.01 1.03 0.99 1.02 0.98 0.99 1.05 1.15 1.23 1.31 1.39 1.45 1.53 1.55 1.55 1.57 1.59 1.59 1.61 1.65 1.64 1.62 1.60 1.59 1.61 1.64 1.61 1.59 1.58 1.59 1.59 1.58 1.55 1.53 1.45 1.38 1.39 1.41 1.36 1.30 1.35 1.17 1.03 0.97 0.94 0.89 0.98 1.03 1.12 1.25 1.25 1.32 1.34 1.35 1.35 1.36 1.38 1.38
1.38 1.34 1.27 1.23 1.25 1.30 1.34 1.33 1.28 1.27 1.31 1.37 1.41 1.43 1.41 1.38 1.37 1.36 1.35 1.30 1.22 1.17 1.14 1.10 1.02 0.95 0.93 0.88 0.85 0.85 0.84 0.86 0.83 0.87 1.01 1.10 1.18 1.37 1.44 1.47 1.50 1.52 1.54 1.56 1.58 1.61 1.60 1.63 1.62 1.58 1.55 1.56 1.59 1.60 1.63 1.63 1.61 1.60 1.62 1.59 1.55 1.58 1.49 1.38 1.33 1.39 1.31 1.29 1.29 1.23 1.15 1.03 1.00 1.08 1.07 0.95 1.20 1.25 1.27 1.29 1.31 1.32 1.32 1.31 1.32
1.42 1.43 1.42 1.33 1.27 1.26 1.27 1.26 1.25 1.23 1.28 1.41 1.45 1.44 1.45 1.43 1.41 1.40 1.36 1.34 1.33 1.27 1.24 1.17 1.09 1.04 0.96 0.89 0.87 0.86 0.83 0.87 0.93 0.96 1.02 1.16 1.27 1.34 1.39 1.44 1.47 1.47 1.49 1.52 1.57 1.60 1.61 1.62 1.62 1.61 1.58 1.55 1.57 1.58 1.57 1.58 1.63 1.65 1.70 1.64 1.60 1.61 1.54 1.36 1.31 1.31 1.33 1.28 1.26 1.25 1.26 1.25 1.24 1.15 1.03 1.09 0.98 1.17 1.19 1.21 1.24 1.29 1.31 1.30 1.28
1.35 1.38 1.40 1.37 1.30 1.23 1.18 1.21 1.23 1.22 1.33 1.40 1.42 1.44 1.43 1.44 1.44 1.41 1.42 1.40 1.38 1.36 1.31 1.25 1.13 1.07 1.01 0.97 0.97 0.95 0.90 0.90 0.97 0.99 1.07 1.17 1.24 1.31 1.37 1.40 1.43 1.46 1.45 1.48 1.54 1.58 1.59 1.60 1.61 1.61 1.59 1.58 1.56 1.52 1.53 1.59 1.65 1.69 1.70 1.69 1.66 1.60 1.56 1.45 1.40 1.36 1.23 1.25 1.29 1.25 1.24 1.24 1.24 1.23 1.22 1.11 1.04 0.96 1.06 1.21 1.22 1.23 1.27 1.29 1.29
1.35 1.35 1.37 1.38 1.33 1.27 1.26 1.25 1.29 1.34 1.34 1.33 1.36 1.40 1.45 1.49 1.49 1.48 1.43 1.42 1.43 1.41 1.36 1.32 1.25 1.16 1.09 1.05 1.01 1.02 1.02 1.03 1.07 1.08 1.06 1.13 1.18 1.30 1.34 1.37 1.40 1.43 1.45 1.45 1.49 1.54 1.58 1.58 1.59 1.58 1.57 1.56 1.56 1.55 1.54 1.57 1.58 1.61 1.63 1.62 1.58 1.59 1.58 1.58 1.50 1.43 1.36 1.30 1.28 1.25 1.25 1.22 1.24 1.23 1.24 1.23 1.09 1.00 0.97 1.01 1.06 1.19 1.19 1.21 1.23
1.36 1.37 1.39 1.42 1.43 1.38 1.33 1.35 1.37 1.31 1.33 1.37 1.41 1.45 1.46 1.47 1.46 1.45 1.42 1.42 1.44 1.43 1.40 1.36 1.33 1.28 1.20 1.15 1.08 1.05 1.07 1.10 1.11 1.08 1.07 1.12 1.12 1.21 1.30 1.33 1.35 1.38 1.42 1.44 1.44 1.49 1.53 1.57 1.56 1.54 1.55 1.56 1.54 1.53 1.54 1.52 1.54 1.58 1.63 1.63 1.64 1.60 1.63 1.60 1.54 1.54 1.49 1.46 1.41 1.36 1.23 1.22 1.19 1.18 1.17 1.17 1.16 1.12 0.94 0.96 1.01 0.99 0.98 1.14 1.20
1.28 1.33 1.39 1.41 1.47 1.49 1.46 1.34 1.31 1.35 1.35 1.34 1.35 1.38 1.41 1.42 1.43 1.41 1.42 1.45 1.44 1.42 1.41 1.37 1.37 1.34 1.27 1.23 1.18 1.11 1.11 1.11 1.08 1.07 1.08 1.09 1.08 1.14 1.21 1.27 1.32 1.34 1.38 1.40 1.41 1.45 1.49 1.53 1.52 1.52 1.54 1.55 1.53 1.52 1.51 1.50 1.51 1.53 1.60 1.65 1.64 1.60 1.61 1.61 1.58 1.58 1.54 1.47 1.42 1.38 1.29 1.21 1.13 1.08 1.12 1.16 1.12 1.07 1.05 1.03 1.05 1.07 1.03 1.01 1.16
1.26 1.31 1.35 1.41 1.44 1.47 1.48 1.37 1.32 1.33 1.32 1.28 1.29 1.33 1.36 1.38 1.39 1.38 1.41 1.42 1.43 1.42 1.42 1.41 1.41 1.40 1.37 1.33 1.25 1.21 1.18 1.14 1.09 1.05 1.06 1.04 1.06 1.10 1.20 1.25 1.27 1.32 1.34 1.35 1.36 1.41 1.45 1.48 1.51 1.51 1.49 1.49 1.49 1.52 1.52 1.53 1.53 1.53 1.56 1.59 1.61 1.64 1.65 1.62 1.59 1.55 1.53 1.49 1.44 1.40 1.37 1.34 1.27 1.17 1.16 1.17 1.12 1.10 1.09 1.04 1.05 1.11 1.08 1.10 1.17
1.22 1.25 1.32 1.36 1.35 1.37 1.37 1.37 1.34 1.29 1.27 1.26 1.23 1.26 1.30 1.33 1.35 1.33 1.33 1.39 1.41 1.41 1.38 1.39 1.40 1.38 1.37 1.34 1.29 1.28 1.24 1.21 1.17 1.15 1.15 1.10 1.11 1.11 1.14 1.16 1.23 1.23 1.26 1.28 1.33 1.37 1.41 1.42 1.44 1.44 1.44 1.45 1.47 1.49 1.51 1.52 1.51 1.51 1.51 1.53 1.58 1.59 1.61 1.62 1.58 1.56 1.55 1.48 1.45 1.49 1.44 1.41 1.35 1.35 1.28 1.21 1.21 1.21 1.15 1.03 1.08 1.14 1.01 1.03 1.15
1.19 1.23 1.27 1.29 1.31 1.33 1.35 1.37 1.36 1.32 1.30 1.30 1.26 1.24 1.25 1.27 1.30 1.30 1.31 1.38 1.41 1.40 1.38 1.36 1.37 1.38 1.39 1.36 1.34 1.32 1.26 1.25 1.24 1.22 1.22 1.20 1.19 1.14 1.12 1.15 1.18 1.18 1.24 1.25 1.32 1.37 1.39 1.42 1.44 1.44 1.46 1.47 1.46 1.47 1.49 1.51 1.51 1.49 1.49 1.48 1.51 1.59 1.64 1.62 1.60 1.60 1.60 1.59 1.58 1.50 1.45 1.42 1.41 1.41 1.37 1.32 1.25 1.19 1.10 1.04 1.04 1.10 1.08 1.01 1.11
1.16 1.20 1.24 1.25 1.29 1.31 1.33 1.35 1.37 1.37 1.33 1.31 1.30 1.27 1.24 1.22 1.25 1.26 1.29 1.35 1.38 1.38 1.38 1.34 1.35 1.38 1.39 1.40 1.39 1.37 1.32 1.30 1.29 1.28 1.27 1.23 1.22 1.18 1.17 1.19 1.18 1.22 1.25 1.30 1.34 1.34 1.36 1.41 1.43 1.42 1.43 1.44 1.45 1.45 1.48 1.50 1.51 1.50 1.50 1.51 1.53 1.58 1.60 1.61 1.59 1.57 1.55 1.56 1.57 1.54 1.51 1.47 1.43 1.43 1.40 1.34 1.33 1.25 1.16 1.10 1.07 0.96 0.97 1.04 1.02
1.11 1.15 1.20 1.24 1.27 1.30 1.33 1.36 1.38 1.39 1.40 1.37 1.31 1.29 1.25 1.21 1.22 1.24 1.26 1.31 1.36 1.37 1.37 1.35 1.34 1.37 1.39 1.38 1.38 1.38 1.36 1.35 1.33 1.33 1.32 1.31 1.28 1.23 1.20 1.20 1.21 1.26 1.31 1.32 1.33 1.33 1.33 1.34 1.38 1.37 1.40 1.40 1.42 1.44 1.45 1.47 1.48 1.48 1.48 1.49 1.47 1.57 1.56 1.57 1.58 1.58 1.55 1.56 1.57 1.60 1.56 1.53 1.53 1.50 1.44 1.39 1.35 1.32 1.26 1.22 1.15 1.06 0.93 0.85 0.96
1.03 1.09 1.15 1.21 1.26 1.29 1.31 1.33 1.35 1.38 1.40 1.38 1.35 1.30 1.25 1.26 1.25 1.24 1.27 1.32 1.34 1.36 1.37 1.38 1.37 1.35 1.36 1.38 1.38 1.37 1.36 1.31 1.28 1.27 1.28 1.32 1.31 1.29 1.26 1.25 1.28 1.29 1.30 1.33 1.33 1.33 1.33 1.31 1.29 1.31 1.33 1.35 1.37 1.40 1.42 1.44 1.46 1.46 1.46 1.46 1.44 1.51 1.52 1.53 1.59 1.56 1.57 1.58 1.57 1.58 1.57 1.57 1.58 1.58 1.52 1.46 1.42 1.39 1.35 1.30 1.25 1.13 1.08 0.94 0.86
0.94 1.02 1.11 1.18 1.22 1.23 1.27 1.31 1.32 1.33 1.34 1.38 1.41 1.42 1.38 1.32 1.29 1.27 1.28 1.25 1.29 1.34 1.36 1.37 1.36 1.33 1.33 1.34 1.36 1.36 1.34 1.32 1.32 1.30 1.32 1.31 1.31 1.32 1.32 1.30 1.27 1.29 1.31 1.32 1.33 1.32 1.31 1.29 1.27 1.28 1.31 1.32 1.31 1.35 1.37 1.40 1.42 1.42 1.45 1.47 1.49 1.50 1.46 1.50 1.54 1.57 1.57 1.58 1.57 1.56 1.57 1.54 1.60 1.59 1.55 1.54 1.48 1.45 1.40 1.34 1.28 1.24 1.20 1.02 0.98
0.90 0.98 1.08 1.15 1.20 1.23 1.26 1.28 1.31 1.34 1.39 1.42 1.46 1.49 1.47 1.41 1.36 1.33 1.28 1.27 1.29 1.32 1.36 1.39 1.40 1.37 1.35 1.33 1.33 1.34 1.34 1.34 1.35 1.36 1.35 1.30 1.28 1.29 1.27 1.27 1.29 1.33 1.32 1.31 1.30 1.29 1.28 1.27 1.27 1.26 1.27 1.26 1.29 1.30 1.34 1.35 1.37 1.37 1.41 1.41 1.45 1.45 1.40 1.38 1.45 1.49 1.54 1.55 1.52 1.49 1.52 1.50 1.55 1.55 1.56 1.55 1.53 1.49 1.44 1.41 1.34 1.29 1.22 1.14 1.06
0.84 0.93 1.04 1.11 1.17 1.21 1.23 1.25 1.28 1.32 1.36 1.41 1.45 1.48 1.46 1.45 1.42 1.38 1.37 1.39 1.37 1.33 1.34 1.32 1.36 1.37 1.35 1.36 1.35 1.36 1.36 1.34 1.35 1.34 1.30 1.27 1.27 1.26 1.26 1.25 1.26 1.30 1.29 1.31 1.29 1.26 1.25 1.24 1.26 1.24 1.21 1.20 1.21 1.24 1.29 1.31 1.33 1.33 1.36 1.36 1.40 1.41 1.37 1.34 1.37 1.44 1.45 1.46 1.45 1.42 1.44 1.45 1.49 1.49 1.48 1.50 1.50 1.51 1.49 1.44 1.40 1.34 1.28 1.23 1.17
0.81 0.89 1.00 1.09 1.14 1.19 1.23 1.27 1.31 1.35 1.41 1.45 1.46 1.44 1.45 1.48 1.44 1.42 1.37 1.34 1.32 1.32 1.32 1.31 1.34 1.35 1.35 1.31 1.31 1.33 1.34 1.36 1.36 1.35 1.30 1.28 1.28 1.28 1.27 1.27 1.29 1.26 1.27 1.26 1.25 1.25 1.25 1.25 1.23 1.21 1.16 1.14 1.14 1.17 1.23 1.27 1.28 1.29 1.33 1.36 1.40 1.41 1.36 1.36 1.37 1.37 1.41 1.39 1.38 1.35 1.36 1.39 1.45 1.40 1.40 1.43 1.44 1.45 1.47 1.45 1.43 1.40 1.32 1.31 1.22
0.79 0.88 0.96 1.05 1.12 1.17 1.21 1.26 1.33 1.35 1.36 1.37 1.41 1.45 1.46 1.43 1.41 1.41 1.41 1.39 1.35 1.33 1.31 1.30 1.32 1.33 1.31 1.31 1.32 1.34 1.35 1.36 1.33 1.32 1.28 1.28 1.28 1.27 1.28 1.29 1.25 1.26 1.27 1.25 1.25 1.27 1.27 1.25 1.21 1.17 1.14 1.13 1.12 1.13 1.19 1.22 1.22 1.24 1.26 1.33 1.34 1.35 1.34 1.33 1.35 1.31 1.35 1.37 1.36 1.32 1.31 1.36 1.41 1.35 1.36 1.37 1.39 1.39 1.38 1.38 1.38 1.37 1.33 1.32 1.37
0.75 0.85 0.94 1.02 1.08 1.14 1.19 1.22 1.25 1.27 1.29 1.32 1.37 1.40 1.40 1.40 1.41 1.40 1.37 1.35 1.36 1.34 1.34 1.33 1.31 1.30 1.30 1.32 1.33 1.32 1.33 1.31 1.29 1.28 1.25 1.25 1.26 1.27 1.30 1.26 1.24 1.25 1.28 1.27 1.25 1.26 1.25 1.23 1.18 1.15 1.12 1.10 1.09 1.09 1.14 1.16 1.17 1.18 1.19 1.25 1.29 1.30 1.28 1.26 1.25 1.26 1.29 1.34 1.31 1.27 1.26 1.32 1.37 1.30 1.31 1.33 1.37 1.36 1.37 1.33 1.32 1.34 1.30 1.33 1.36
0.74 0.83 0.91 0.99 1.06 1.14 1.20 1.21 1.22 1.25 1.28 1.32 1.34 1.37 1.39 1.41 1.40 1.39 1.35 1.36 1.38 1.38 1.37 1.33 1.30 1.29 1.31 1.32 1.30 1.31 1.30 1.28 1.25 1.24 1.22 1.23 1.25 1.26 1.29 1.25 1.24 1.26 1.23 1.24 1.25 1.24 1.23 1.20 1.15 1.12 1.10 1.07 1.07 1.06 1.09 1.12 1.13 1.15 1.16 1.18 1.23 1.25 1.24 1.23 1.21 1.22 1.25 1.26 1.23 1.20 1.20 1.24 1.27 1.22 1.22 1.27 1.33 1.33 1.31 1.30 1.28 1.30 1.29 1.28 1.32
0.72 0.79 0.85 0.94 1.04 1.09 1.13 1.16 1.19 1.23 1.27 1.31 1.33 1.35 1.36 1.36 1.39 1.36 1.35 1.39 1.39 1.40 1.35 1.32 1.29 1.27 1.29 1.30 1.28 1.29 1.27 1.25 1.23 1.22 1.20 1.21 1.22 1.23 1.25 1.22 1.23 1.21 1.20 1.20 1.20 1.22 1.19 1.16 1.11 1.08 1.06 1.05 1.05 1.06 1.06 1.08 1.12 1.15 1.16 1.16 1.16 1.17 1.16 1.16 1.18 1.19 1.22 1.22 1.19 1.15 1.16 1.20 1.21 1.16 1.17 1.19 1.24 1.24 1.26 1.25 1.22 1.25 1.25 1.27 1.30
0.70 0.75 0.81 0.87 0.95 1.02 1.07 1.12 1.17 1.21 1.25 1.29 1.32 1.33 1.34 1.35 1.36 1.38 1.38 1.39 1.38 1.38 1.34 1.30 1.28 1.26 1.27 1.26 1.27 1.27 1.24 1.22 1.21 1.21 1.20 1.21 1.21 1.20 1.19 1.19 1.20 1.16 1.17 1.17 1.14 1.15 1.12 1.10 1.09 1.07 1.06 1.05 1.07 1.08 1.07 1.07 1.09 1.13 1.14 1.14 1.13 1.11 1.11 1.12 1.14 1.17 1.19 1.20 1.16 1.14 1.15 1.16 1.16 1.12 1.10 1.15 1.18 1.17 1.21 1.19 1.18 1.20 1.23 1.26 1.25
0.69 0.73 0.77 0.84 0.91 0.96 1.01 1.08 1.13 1.16 1.22 1.26 1.29 1.31 1.33 1.35 1.36 1.40 1.41 1.39 1.38 1.36 1.33 1.29 1.27 1.25 1.25 1.25 1.25 1.25 1.24 1.21 1.21 1.21 1.23 1.23 1.21 1.20 1.18 1.15 1.17 1.15 1.13 1.11 1.11 1.09 1.10 1.08 1.07 1.07 1.04 1.04 1.06 1.08 1.09 1.09 1.09 1.11 1.10 1.08 1.07 1.07 1.07 1.09 1.11 1.13 1.16 1.18 1.17 1.14 1.12 1.12 1.10 1.10 1.09 1.09 1.13 1.15 1.16 1.14 1.17 1.18 1.22 1.20 1.17
0.61 0.71 0.77 0.80 0.85 0.91 0.97 1.04 1.09 1.13 1.19 1.23 1.27 1.30 1.31 1.33 1.33 1.37 1.41 1.41 1.40 1.35 1.31 1.27 1.25 1.24 1.22 1.22 1.25 1.27 1.26 1.24 1.24 1.25 1.24 1.23 1.22 1.21 1.19 1.19 1.19 1.14 1.11 1.08 1.07 1.05 1.07 1.08 1.06 1.04 1.04 1.07 1.07 1.08 1.09 1.09 1.09 1.09 1.08 1.06 1.05 1.04 1.03 1.05 1.06 1.09 1.11 1.13 1.14 1.13 1.11 1.11 1.10 1.09 1.08 1.10 1.14 1.12 1.17 1.14 1.18 1.21 1.20 1.18 1.14
0.51 0.56 0.64 0.70 0.75 0.83 0.93 1.02 1.08 1.13 1.16 1.19 1.23 1.28 1.34 1.38 1.40 1.41 1.43 1.40 1.40 1.34 1.28 1.25 1.25 1.22 1.19 1.21 1.25 1.29 1.30 1.29 1.28 1.26 1.24 1.23 1.22 1.21 1.21 1.20 1.17 1.13 1.13 1.11 1.11 1.09 1.06 1.04 1.04 1.03 1.04 1.07 1.07 1.06 1.07 1.06 1.05 1.05 1.07 1.04 1.04 1.03 1.02 1.00 1.01 1.03 1.06 1.08 1.09 1.09 1.08 1.07 1.09 1.08 1.09 1.11 1.14 1.17 1.15 1.10 1.16 1.23 1.21 1.19 1.18
0.44 0.50 0.56 0.62 0.68 0.75 0.84 0.97 1.07 1.11 1.13 1.16 1.20 1.25 1.28 1.30 1.33 1.37 1.38 1.41 1.40 1.32 1.25 1.23 1.21 1.21 1.23 1.25 1.25 1.26 1.27 1.28 1.27 1.25 1.24 1.25 1.24 1.22 1.21 1.18 1.16 1.14 1.14 1.13 1.12 1.11 1.07 1.02 1.00 1.01 1.03 1.06 1.06 1.06 1.04 1.03 1.05 1.05 1.07 1.06 1.05 1.03 1.01 0.99 0.98 0.97 0.99 1.03 1.04 1.05 1.05 1.04 1.04 1.06 1.08 1.10 1.12 1.15 1.19 1.22 1.23 1.29 1.31 1.29 1.26
0.40 0.46 0.48 0.55 0.64 0.73 0.81 0.94 1.04 1.10 1.11 1.13 1.16 1.20 1.25 1.29 1.34 1.36 1.36 1.38 1.36 1.29 1.25 1.21 1.17 1.20 1.24 1.26 1.25 1.24 1.25 1.24 1.25 1.26 1.27 1.27 1.24 1.24 1.21 1.18 1.16 1.15 1.13 1.13 1.12 1.09 1.06 1.04 1.01 1.00 1.01 1.04 1.04 1.03 1.01 1.01 1.01 1.03 1.07 1.07 1.04 1.01 1.02 1.01 0.98 0.96 0.94 0.97 1.02 1.04 1.05 1.05 1.05 1.05 1.08 1.11 1.14 1.17 1.20 1.24 1.28 1.34 1.40 1.39 1.35
0.42 0.44 0.48 0.51 0.60 0.72 0.80 0.90 1.00 1.07 1.11 1.14 1.17 1.21 1.26 1.28 1.33 1.34 1.37 1.38 1.34 1.28 1.24 1.23 1.24 1.26 1.26 1.24 1.24 1.25 1.25 1.23 1.25 1.24 1.25 1.27 1.27 1.25 1.20 1.18 1.16 1.14 1.14 1.15 1.11 1.08 1.07 1.06 1.05 1.05 1.04 1.04 1.03 1.01 1.01 1.01 1.00 1.01 1.04 1.05 1.07 1.04 1.02 1.01 0.99 0.98 1.00 1.01 1.01 1.03 1.07 1.10 1.10 1.10 1.13 1.15 1.15 1.19 1.24 1.29 1.35 1.41 1.47 1.53 1.58
0.47 0.42 0.47 0.51 0.57 0.68 0.75 0.83 0.93 1.02 1.09 1.13 1.17 1.20 1.22 1.27 1.31 1.35 1.40 1.35 1.29 1.26 1.25 1.27 1.31 1.31 1.29 1.29 1.30 1.28 1.25 1.25 1.24 1.24 1.26 1.27 1.25 1.22 1.19 1.17 1.14 1.16 1.17 1.13 1.10 1.09 1.07 1.08 1.08 1.06 1.05 1.07 1.06 1.05 1.03 1.01 1.00 1.01 1.02 1.04 1.05 1.06 1.04 1.02 1.02 1.02 1.03 1.05 1.06 1.06 1.07 1.12 1.14 1.14 1.16 1.19 1.23 1.28 1.33 1.39 1.47 1.54 1.59 1.63 1.65
0.51 0.44 0.43 0.49 0.59 0.66 0.74 0.80 0.86 0.95 1.05 1.13 1.19 1.19 1.23 1.33 1.38 1.40 1.36 1.33 1.30 1.28 1.27 1.29 1.32 1.32 1.33 1.34 1.34 1.31 1.27 1.26 1.26 1.26 1.25 1.22 1.20 1.17 1.17 1.20 1.20 1.20 1.16 1.13 1.13 1.10 1.10 1.10 1.10 1.10 1.10 1.11 1.10 1.09 1.07 1.04 1.03 1.01 1.02 1.03 1.04 1.05 1.06 1.05 1.05 1.06 1.07 1.08 1.09 1.09 1.09 1.09 1.15 1.19 1.21 1.22 1.27 1.34 1.42 1.50 1.54 1.57 1.60 1.65 1.68
0.59 0.54 0.53 0.54 0.55 0.65 0.75 0.84 0.91 1.01 1.14 1.19 1.24 1.30 1.35 1.38 1.41 1.38 1.38 1.35 1.32 1.30 1.30 1.31 1.31 1.33 1.34 1.34 1.33 1.31 1.28 1.29 1.28 1.26 1.22 1.19 1.16 1.17 1.18 1.19 1.19 1.17 1.15 1.12 1.11 1.10 1.11 1.13 1.15 1.17 1.15 1.14 1.13 1.13 1.11 1.09 1.07 1.05 1.04 1.05 1.06 1.07 1.06 1.07 1.09 1.11 1.12 1.13 1.15 1.17 1.16 1.13 1.16 1.20 1.25 1.27 1.31 1.37 1.45 1.52 1.58 1.62 1.67 1.71 1.73
0.74 0.68 0.63 0.58 0.54 0.64 0.75 0.81 0.93 1.02 1.08 1.12 1.18 1.27 1.30 1.34 1.40 1.38 1.38 1.36 1.34 1.31 1.30 1.32 1.31 1.32 1.30 1.30 1.27 1.26 1.26 1.27 1.26 1.25 1.21 1.17 1.16 1.15 1.14 1.18 1.19 1.19 1.21 1.20 1.19 1.18 1.16 1.17 1.19 1.20 1.18 1.14 1.15 1.16 1.13 1.11 1.11 1.11 1.11 1.10 1.08 1.06 1.05 1.07 1.10 1.14 1.17 1.20 1.21 1.21 1.20 1.18 1.19 1.24 1.29 1.33 1.37 1.43 1.47 1.50 1.54 1.59 1.64 1.71 1.76
0.82 0.79 0.71 0.68 0.68 0.75 0.86 0.96 1.00 1.03 1.05 1.11 1.22 1.29 1.31 1.35 1.36 1.38 1.39 1.37 1.35 1.30 1.28 1.29 1.28 1.29 1.30 1.31 1.29 1.25 1.23 1.21 1.21 1.20 1.17 1.16 1.15 1.16 1.17 1.22 1.17 1.17 1.17 1.15 1.15 1.16 1.19 1.19 1.19 1.21 1.18 1.15 1.15 1.18 1.16 1.15 1.15 1.16 1.16 1.14 1.11 1.10 1.09 1.10 1.11 1.16 1.21 1.22 1.23 1.24 1.24 1.22 1.25 1.29 1.34 1.39 1.43 1.48 1.48 1.49 1.53 1.57 1.62 1.66 1.71
0.85 0.85 0.79 0.75 0.78 0.87 0.93 0.92 0.98 1.02 1.08 1.19 1.28 1.31 1.32 1.31 1.33 1.36 1.36 1.35 1.31 1.26 1.28 1.28 1.28 1.30 1.32 1.33 1.33 1.32 1.28 1.26 1.24 1.17 1.16 1.17 1.19 1.21 1.19 1.22 1.16 1.14 1.13 1.15 1.19 1.20 1.23 1.25 1.23 1.22 1.22 1.17 1.16 1.22 1.21 1.20 1.21 1.21 1.20 1.17 1.15 1.13 1.12 1.15 1.17 1.22 1.25 1.25 1.24 1.24 1.27 1.30 1.31 1.33 1.40 1.45 1.50 1.53 1.50 1.53 1.55 1.57 1.58 1.60 1.68
0.91 0.86 0.79 0.77 0.81 0.85 0.90 0.96 1.00 1.01 1.12 1.25 1.31 1.33 1.32 1.29 1.30 1.31 1.30 1.28 1.26 1.26 1.28 1.27 1.30 1.35 1.37 1.38 1.38 1.37 1.34 1.32 1.30 1.30 1.31 1.29 1.28 1.27 1.29 1.31 1.27 1.24 1.22 1.25 1.26 1.24 1.26 1.29 1.29 1.28 1.27 1.24 1.24 1.27 1.26 1.25 1.25 1.25 1.24 1.23 1.21 1.18 1.15 1.17 1.19 1.20 1.25 1.26 1.25 1.27 1.28 1.33 1.37 1.40 1.45 1.51 1.56 1.59 1.57 1.58 1.61 1.61 1.59 1.59 1.69
0.99 0.95 0.95 0.91 0.92 0.92 0.93 0.94 0.96 1.02 1.18 1.29 1.34 1.33 1.29 1.28 1.29 1.29 1.26 1.24 1.25 1.27 1.31 1.35 1.39 1.42 1.44 1.44 1.44 1.42 1.41 1.39 1.38 1.41 1.43 1.44 1.48 1.49 1.47 1.47 1.46 1.45 1.41 1.39 1.38 1.35 1.31 1.31 1.35 1.34 1.32 1.31 1.28 1.30 1.30 1.28 1.27 1.26 1.25 1.26 1.26 1.21 1.15 1.17 1.21 1.22 1.21 1.26 1.29 1.31 1.35 1.38 1.42 1.46 1.51 1.57 1.61 1.64 1.63 1.65 1.69 1.65 1.62 1.59 1.77
1.03 1.00 1.03 0.99 0.97 0.93 0.90 0.92 1.01 1.13 1.25 1.34 1.36 1.31 1.28 1.29 1.30 1.27 1.22 1.22 1.28 1.34 1.36 1.38 1.40 1.43 1.45 1.46 1.48 1.49 1.47 1.50 1.53 1.53 1.58 1.61 1.64 1.63 1.65 1.64 1.63 1.64 1.62 1.60 1.57 1.55 1.52 1.50 1.51 1.49 1.45 1.44 1.42 1.38 1.39 1.35 1.32 1.29 1.29 1.28 1.28 1.25 1.25 1.25 1.26 1.28 1.29 1.27 1.31 1.36 1.42 1.48 1.52 1.56 1.59 1.62 1.64 1.66 1.68 1.70 1.73 1.72 1.76 1.80 1.87
1.22 1.14 1.07 1.07 1.06 1.04 1.02 1.05 1.12 1.21 1.31 1.35 1.35 1.30 1.29 1.28 1.26 1.21 1.23 1.31 1.36 1.38 1.40 1.43 1.42 1.42 1.44 1.47 1.49 1.52 1.54 1.56 1.61 1.65 1.65 1.67 1.73 1.76 1.75 1.75 1.74 1.72 1.70 1.69 1.70 1.69 1.67 1.66 1.66 1.65 1.61 1.58 1.59 1.55 1.51 1.46 1.41 1.37 1.34 1.34 1.34 1.34 1.38 1.37 1.36 1.37 1.38 1.36 1.38 1.43 1.50 1.58 1.61 1.63 1.65 1.67 1.69 1.70 1.72 1.71 1.74 1.81 1.87 1.88 1.88
1.20 1.17 1.19 1.15 1.11 1.10 1.10 1.11 1.20 1.29 1.34 1.35 1.34 1.29 1.28 1.27 1.22 1.25 1.36 1.41 1.40 1.41 1.42 1.43 1.43 1.43 1.45 1.49 1.52 1.53 1.55 1.60 1.63 1.67 1.69 1.69 1.75 1.75 1.76 1.77 1.74 1.72 1.71 1.71 1.72 1.74 1.73 1.73 1.75 1.77 1.77 1.76 1.76 1.74 1.68 1.61 1.55 1.50 1.44 1.42 1.43 1.46 1.51 1.52 1.47 1.42 1.42 1.44 1.51 1.55 1.61 1.65 1.67 1.68 1.70 1.72 1.73 1.74 1.73 1.74 1.78 1.82 1.86 1.90 1.93
1.32 1.30 1.26 1.24 1.19 1.18 1.19 1.27 1.33 1.36 1.38 1.38 1.34 1.28 1.27 1.25 1.26 1.41 1.45 1.44 1.43 1.45 1.46 1.46 1.47 1.47 1.49 1.51 1.54 1.58 1.61 1.64 1.66 1.69 1.70 1.70 1.71 1.73 1.75 1.76 1.75 1.73 1.71 1.70 1.72 1.75 1.75 1.72 1.72 1.76 1.83 1.87 1.90 1.90 1.87 1.81 1.74 1.67 1.59 1.54 1.53 1.55 1.58 1.58 1.58 1.52 1.55 1.57 1.57 1.62 1.67 1.70 1.71 1.72 1.74 1.75 1.76 1.76 1.77 1.80 1.81 1.84 1.90 1.91 1.91
1.35 1.35 1.36 1.33 1.27 1.25 1.29 1.34 1.41 1.43 1.44 1.42 1.41 1.33 1.30 1.28 1.39 1.48 1.46 1.45 1.45 1.47 1.47 1.48 1.50 1.54 1.55 1.57 1.61 1.62 1.64 1.68 1.70 1.71 1.69 1.70 1.72 1.75 1.72 1.78 1.77 1.74 1.72 1.69 1.72 1.74 1.72 1.73 1.74 1.74 1.80 1.88 1.94 1.98 1.99 1.97 1.93 1.86 1.79 1.72 1.67 1.66 1.64 1.64 1.58 1.60 1.64 1.67 1.69 1.72 1.73 1.74 1.74 1.75 1.76 1.78 1.78 1.79 1.81 1.83 1.87 1.90 1.91 1.90 1.86
1.48 1.45 1.45 1.42 1.40 1.38 1.39 1.38 1.43 1.48 1.46 1.47 1.46 1.44 1.35 1.38 1.49 1.52 1.54 1.52 1.51 1.50 1.50 1.52 1.55 1.56 1.57 1.61 1.61 1.64 1.66 1.68 1.71 1.73 1.73 1.75 1.73 1.74 1.73 1.76 1.76 1.75 1.75 1.73 1.73 1.74 1.74 1.74 1.72 1.75 1.77 1.83 1.91 1.94 1.97 2.03 2.03 2.00 1.94 1.87 1.82 1.78 1.74 1.71 1.68 1.69 1.67 1.71 1.72 1.73 1.74 1.75 1.75 1.76 1.76 1.78 1.79 1.83 1.85 1.87 1.90 1.91 1.92 1.90 1.89
1.47 1.54 1.57 1.52 1.49 1.45 1.45 1.44 1.42 1.49 1.50 1.51 1.50 1.50 1.50 1.53 1.55 1.59 1.60 1.60 1.58 1.56 1.55 1.55 1.53 1.56 1.60 1.63 1.59 1.58 1.59 1.63 1.66 1.70 1.72 1.73 1.74 1.74 1.73 1.72 1.72 1.70 1.72 1.73 1.73 1.71 1.70 1.70 1.69 1.73 1.78 1.82 1.85 1.89 1.91 1.95 1.99 1.98 1.96 1.95 1.90 1.86 1.83 1.77 1.73 1.74 1.73 1.73 1.74 1.76 1.76 1.77 1.78 1.79 1.80 1.81 1.82 1.84 1.86 1.89 1.90 1.91 1.92 1.92 1.91
1.53 1.58 1.61 1.60 1.57 1.54 1.55 1.55 1.52 1.57 1.58 1.59 1.57 1.56 1.60 1.63 1.65 1.66 1.66 1.67 1.65 1.64 1.56 1.49 1.48 1.49 1.50 1.51 1.49 1.50 1.51 1.53 1.56 1.59 1.60 1.63 1.67 1.69 1.65 1.62 1.61 1.62 1.61 1.61 1.64 1.64 1.64 1.66 1.67 1.71 1.74 1.76 1.77 1.82 1.86 1.88 1.93 1.93 1.93 1.93 1.90 1.88 1.85 1.83 1.81 1.82 1.83 1.83 1.81 1.82 1.82 1.82 1.81 1.77 1.75 1.77 1.81 1.87 1.88 1.90 1.94 1.94 1.89 1.79 1.64
1.49 1.53 1.57 1.57 1.60 1.61 1.64 1.65 1.65 1.70 1.72 1.70 1.70 1.72 1.75 1.74 1.76 1.78 1.79 1.73 1.67 1.61 1.62 1.56 1.53 1.48 1.44 1.43 1.40 1.40 1.40 1.43 1.46 1.49 1.48 1.50 1.55 1.62 1.62 1.64 1.72 1.74 1.70 1.65 1.62 1.64 1.68 1.73 1.74 1.72 1.69 1.68 1.72 1.73 1.84 1.95 1.96 1.97 1.95 1.93 1.89 1.88 1.89 1.89 1.90 1.90 1.89 1.87 1.83 1.78 1.74 1.73 1.72 1.71 1.73 1.77 1.80 1.84 1.90 1.91 1.83 1.71 1.57 1.43 1.32
1.47 1.53 1.53 1.55 1.60 1.62 1.65 1.69 1.73 1.78 1.78 1.77 1.77 1.80 1.84 1.87 1.90 1.87 1.80 1.65 1.62 1.57 1.52 1.49 1.48 1.41 1.38 1.36 1.36 1.36 1.37 1.37 1.36 1.35 1.35 1.39 1.46 1.52 1.57 1.60 1.62 1.67 1.71 1.73 1.73 1.69 1.74 1.75 1.72 1.78 1.80 1.74 1.74 1.87 1.96 1.97 1.96 1.96 1.97 1.98 1.99 1.99 1.99 1.98 1.96 1.95 1.92 1.82 1.78 1.74 1.73 1.74 1.76 1.78 1.80 1.82 1.84 1.82 1.75 1.65 1.55 1.40 1.32 1.25 1.14
1.41 1.47 1.48 1.49 1.54 1.59 1.61 1.64 1.70 1.74 1.73 1.75 1.77 1.81 1.84 1.82 1.90 1.91 1.78 1.64 1.64 1.61 1.49 1.43 1.43 1.39 1.38 1.36 1.34 1.30 1.31 1.33 1.33 1.32 1.31 1.30 1.33 1.41 1.48 1.56 1.62 1.65 1.67 1.70 1.73 1.75 1.78 1.80 1.77 1.71 1.75 1.81 1.85 1.91 1.95 1.96 1.96 1.96 1.95 1.96 1.96 1.97 1.97 1.95 1.95 1.89 1.83 1.77 1.74 1.70 1.71 1.75 1.76 1.77 1.75 1.73 1.67 1.57 1.48 1.38 1.28 1.26 1.21 1.09 1.02
Wind_Speed
17 18 20 21 22 22 22 23 24 24 23 24 24 25 24 24 23 23 22 22 22 21 21 20 19 19 18 17 16 15 14 14 13 13 12 11 10 10 9 9 8 8 7 7 7 7 7 7 7 7 7 7 7 6 6 6 6 6 6 6 6 6 6 7 7 6 6 6 6 6 6 5 5 4 4 4 4 4 4 3 3 3 3 2 2
16 17 19 21 22 23 23 23 24 25 25 25 25 25 25 25 24 24 23 23 23 22 22 21 20 19 18 18 17 16 15 14 14 13 13 12 11 10 10 9 9 8 8 7 7 7 7 7 7 6 6 6 6 6 6 6 6 6 6 6 6 6 6 6 6 6 6 6 6 6 5 5 4 4 4 4 4 3 3 3 2 2 2 2 2
17 18 19 21 22 23 23 23 25 25 25 25 25 26 26 25 25 24 24 24 23 23 22 22 21 20 19 18 17 16 15 15 14 14 13 13 12 11 10 9 9 9 8 8 7 7 7 6 6 6 6 6 5 5 5 5 5 5 5 6 6 6 6 6 6 6 6 6 6 5 5 4 4 4 3 3 3 3 2 2 2 2 2 2 2
18 19 19 20 21 23 23 24 25 25 25 26 26 26 26 26 26 25 25 24 24 23 23 22 22 21 20 19 18 17 16 16 15 14 14 13 12 12 11 10 10 9 9 8 7 7 7 6 6 6 6 5 5 5 4 4 4 4 5 5 5 5 5 5 5 5 5 6 6 5 5 4 4 4 3 3 2 2 2 2 2 1 1 1 1
19 19 19 20 21 22 24 24 25 26 26 26 26 26 26 26 27 26 26 25 25 24 24 23 23 22 21 20 19 18 17 16 16 15 14 14 13 13 12 11 10 10 9 8 8 7 7 7 6 6 5 5 5 5 4 4 4 4 4 4 4 4 4 5 5 5 5 5 5 5 4 4 4 4 3 3 2 2 2 2 1 1 1 1 1
20 20 20 20 21 22 23 24 25 27 27 27 27 27 26 26 27 27 26 26 26 25 25 24 24 23 22 21 20 19 18 18 17 16 15 15 14 13 13 12 11 10 9 9 8 8 7 7 6 6 5 5 5 5 4 4 4 4 4 4 4 4 4 4 4 4 4 4 4 4 4 4 4 3 3 3 2 2 1 1 1 1 1 1 1
20 20 20 20 21 21 23 24 25 27 27 27 27 27 27 26 26 27 26 26 26 26 26 25 24 24 23 22 21 20 19 19 18 17 16 15 15 14 13 13 12 11 10 10 9 8 8 7 7 6 5 5 5 5 4 4 4 4 4 4 4 4 4 4 4 4 4 4 3 3 4 4 3 3 3 3 3 2 2 1 1 2 2 1 1
20 21 21 20 21 23 23 24 25 26 27 27 27 27 28 27 27 27 26 26 27 27 27 26 25 25 24 23 22 21 20 19 19 18 17 16 16 15 14 13 13 12 11 10 10 9 8 7 7 6 6 5 5 5 4 4 4 3 3 3 3 3 4 4 4 4 4 4 3 3 3 3 3 2 3 3 3 3 2 2 2 2 2 2 2
22 22 22 22 22 23 24 23 24 25 26 27 27 27 28 27 27 27 27 26 27 27 27 27 26 25 25 24 22 22 21 20 19 19 18 17 17 16 15 14 13 13 12 11 10 10 9 8 7 7 6 5 5 5 5 4 4 4 3 3 3 3 3 3 3 3 3 3 3 3 2 2 2 2 2 2 2 3 3 2 3 3 3 3 3
22 23 23 23 24 24 23 23 24 25 26 27 27 27 28 28 28 28 27 26 27 27 27 27 27 26 25 24 24 23 22 21 20 19 19 18 18 17 16 15 14 13 13 12 11 10 10 9 8 7 6 6 5 5 5 5 4 4 4 3 3 3 3 3 3 3 3 3 3 2 2 2 2 1 1 2 2 2 2 2 3 3 3 4 4
23 23 23 24 24 23 23 24 25 25 26 27 27 28 28 28 28 28 28 27 27 27 27 27 27 26 26 25 25 24 23 22 21 20 20 19 19 18 17 16 15 14 13 12 12 11 10 10 9 8 7 7 6 6 6 5 5 5 4 4 3 3 3 3 2 2 2 2 2 2 2 1 1 1 1 2 2 2 2 2 3 3 4 4 4
23 23 23 23 23 23 23 24 25 25 26 27 28 28 28 29 29 29 28 28 27 27 27 27 27 26 26 26 25 25 24 23 22 21 21 21 20 19 18 17 16 15 14 13 13 12 11 10 9 9 8 8 7 7 6 6 6 5 5 4 4 4 3 3 2 2 2 2 2 1 1 1 1 1 1 1 2 2 2 2 3 4 4 4 4
24 23 23 23 23 24 24 25 25 26 26 27 28 28 28 29 30 29 29 29 28 27 28 27 27 27 26 26 25 24 24 24 23 22 22 21 21 20 19 18 17 16 15 14 13 12 11 11 10 9 9 8 8 8 7 7 6 6 6 5 5 4 4 3 3 2 2 2 2 1 1 0 0 0 1 1 1 2 2 2 3 3 4 4 5
25 24 24 24 25 25 25 26 26 26 26 26 27 28 28 29 30 30 30 30 29 28 28 28 28 28 27 26 25 24 24 24 24 23 23 22 21 21 20 19 18 17 16 15 14 13 12 11 10 9 9 8 8 8 8 7 7 7 6 6 6 5 5 4 4 3 3 2 2 2 1 1 1 1 1 1 1 1 2 2 2 3 3 4 4
26 25 26 26 26 26 26 27 27 27 27 27 27 27 28 29 30 31 30 30 30 30 29 28 28 28 28 27 26 25 25 25 24 24 23 23 22 22 21 20 19 18 16 15 15 14 13 12 11 10 9 9 8 8 8 8 7 7 6 6 6 6 6 5 4 4 3 3 3 2 2 2 2 2 2 1 1 1 1 2 2 3 3 3 4
26 26 27 28 27 27 27 27 27 27 28 28 27 27 27 28 30 31 31 31 31 31 30 29 29 28 28 27 26 26 25 25 25 24 23 23 23 22 22 21 20 19 17 16 15 15 14 13 12 11 10 10 9 9 9 8 8 8 7 7 7 6 6 6 5 5 4 4 3 3 3 3 2 2 2 2 2 1 1 1 1 2 2 3 3
27 28 29 29 28 28 28 28 27 28 28 28 28 27 27 27 29 30 31 31 31 31 31 30 29 29 28 28 27 27 26 26 25 25 24 23 23 23 22 22 21 20 19 17 17 16 15 14 13 12 12 11 10 10 10 10 9 9 8 8 7 7 7 7 6 6 5 4 4 3 3 3 3 3 3 3 2 2 2 1 1 1 1 2 2
28 29 30 30 30 29 29 29 29 29 29 29 28 28 27 28 29 30 31 31 31 32 31 31 30 29 29 29 28 27 27 26 25 25 24 23 23 23 23 22 22 21 20 19 18 17 16 15 14 13 13 12 12 11 11 11 10 10 10 9 9 8 8 8 7 7 6 6 5 4 4 4 4 4 4 4 3 3 3 2 2 2 2 1 1
27 29 30 31 31 31 30 30 30 29 29 29 29 28 28 28 29 30 31 32 32 32 32 31 31 30 29 29 29 28 27 26 26 25 25 24 24 23 23 23 23 22 21 20 19 18 17 16 15 14 14 13 13 12 12 11 11 11 11 10 10 9 9 9 8 8 7 7 6 6 6 5 5 5 5 4 4 4 4 4 3 3 3 3 2
27 28 30 31 32 32 32 32 31 30 29 29 29 29 29 29 29 30 31 32 32 33 32 32 32 30 29 29 29 29 28 27 26 25 25 25 24 24 24 24 23 23 22 21 20 19 18 17 16 15 15 14 14 13 13 12 12 12 12 11 11 10 10 10 9 9 9 8 8 8 7 7 6 6 6 6 5 5 5 5 5 5 4 4 4
28 28 29 32 33 33 33 33 31 30 29 29 29 29 29 29 29 30 31 32 33 33 33 33 32 31 30 30 29 29 29 28 27 26 26 25 25 25 24 24 23 23 23 22 21 20 19 18 17 17 16 15 15 14 13 13 13 13 13 12 12 11 11 11 10 10 10 9 9 9 9 8 8 8 8 7 7 6 6 6 6 6 6 6 6
29 28 29 31 33 33 33 33 32 30 30 30 30 29 29 29 30 30 31 32 33 33 33 33 33 32 31 30 30 29 29 28 27 27 26 26 25 25 25 24 24 24 23 23 22 21 20 20 19 18 17 17 16 15 14 14 13 13 13 13 12 12 12 12 11 11 10 10 10 10 10 10 9 9 9 9 8 8 7 7 7 7 7 7 7
29 29 29 30 32 33 33 33 33 32 31 31 30 30 30 30 30 30 31 32 33 33 33 33 33 33 32 31 30 29 29 29 28 28 27 27 26 26 25 25 25 24 24 24 23 22 21 21 20 19 18 18 17 16 15 15 14 14 14 13 13 13 13 13 12 12 11 11 11 11 11 11 10 10 10 10 9 9 8 8 8 9 9 9 9
29 28 28 29 31 32 32 33 33 32 32 32 31 30 30 30 30 30 31 32 33 33 33 34 34 33 33 32 31 30 29 29 29 28 28 27 27 26 26 26 25 25 24 24 24 23 22 22 21 20 19 18 18 17 17 16 16 15 14 14 14 14 14 14 13 13 12 12 12 12 11 11 11 11 11 10 10 9 9 9 10 10 10 10 10
29 29 28 28 29 31 32 32 33 32 32 32 32 31 30 30 30 30 31 31 32 32 33 34 34 34 34 33 32 31 30 29 29 29 28 28 27 26 26 26 26 25 25 25 24 24 23 22 22 21 20 19 19 18 18 17 17 16 16 15 15 15 15 15 14 14 13 13 13 12 12 12 12 11 11 11 10 10 10 10 10 10 10 11 11
29 29 29 28 29 30 32 32 33 33 33 32 32 32 31 31 31 31 30 31 31 32 33 33 34 35 34 33 33 32 31 30 29 29 29 28 28 27 26 26 26 26 25 25 25 24 24 23 22 22 21 20 19 19 19 18 18 18 17 16 16 16 15 15 15 14 14 14 13 13 13 12 12 11 11 11 11 10 10 10 10 11 11 11 12
29 29 29 28 29 29 31 32 33 34 34 33 32 33 32 31 31 31 30 30 31 31 32 33 33 34 34 34 33 32 31 30 30 29 29 28 28 27 27 26 26 26 25 25 25 24 24 23 22 22 22 21 20 19 19 19 19 19 18 17 17 16 16 15 15 14 14 13 13 13 13 12 12 11 11 11 11 10 10 10 11 11 11 12 12
29 29 29 29 29 29 30 32 34 35 34 33 33 33 33 32 32 31 31 30 30 31 31 32 33 33 33 33 33 32 32 31 30 29 29 28 28 28 27 27 26 26 26 25 25 24 24 23 23 22 22 21 21 20 19 19 19 19 19 18 18 17 16 15 15 15 14 14 13 13 13 13 12 12 12 11 11 10 10 11 11 11 12 12 13
29 30 30 30 31 30 30 31 34 35 35 33 32 32 33 33 32 32 31 31 30 30 31 31 32 32 32 32 32 32 32 31 31 30 29 29 28 28 27 27 27 26 26 25 24 24 23 23 23 23 22 22 21 20 20 20 20 19 19 19 18 17 17 16 16 15 15 15 14 14 14 13 13 13 13 12 12 12 12 12 12 12 13 13 14
29 30 30 31 32 32 31 31 33 35 35 34 33 32 33 33 33 32 32 31 30 29 30 31 31 31 31 31 32 32 32 32 31 31 30 30 29 28 28 27 27 26 26 25 25 24 23 23 23 23 22 22 21 21 21 20 20 20 19 19 18 18 18 17 17 16 16 16 15 15 14 14 14 14 14 13 13 13 13 13 13 13 14 14 15
30 31 31 32 32 32 31 32 33 34 35 34 33 33 33 33 33 33 32 31 30 30 30 31 31 31 31 31 32 31 31 32 32 31 31 30 29 28 28 28 27 27 26 26 25 24 24 23 23 22 22 22 21 21 21 21 21 21 20 19 19 18 18 18 18 17 17 16 16 15 15 15 15 15 15 14 14 15 15 15 15 15 15 16 16
31 32 32 33 34 33 32 33 33 35 35 34 33 33 33 33 33 33 32 32 31 30 30 30 30 30 31 31 31 31 31 31 31 31 31 31 30 29 28 28 27 27 26 26 25 25 24 23 23 22 22 22 22 22 22 21 21 21 21 20 19 19 19 19 18 18 18 17 16 16 16 15 15 15 15 15 15 15 15 15 16 16 16 17 17
31 32 33 35 35 34 34 34 34 35 36 34 33 33 33 33 33 33 33 32 32 31 30 30 30 30 30 30 30 30 31 31 31 31 31 31 30 29 29 28 27 27 27 26 26 25 24 24 23 23 23 22 22 22 22 22 22 22 22 21 21 20 20 19 19 19 18 17 17 17 17 16 16 17 16 16 16 16 16 16 16 16 17 17 18
29 31 33 35 36 35 35 34 34 35 35 34 33 33 33 33 33 33 33 32 32 31 30 30 30 30 30 30 30 30 30 30 30 31 31 31 30 29 29 28 27 27 27 26 26 26 25 24 24 23 23 23 22 22 22 22 22 22 22 22 21 21 21 20 20 20 19 18 18 18 18 18 18 17 17 17 17 16 16 16 16 17 17 18 19
26 30 31 33 36 36 35 35 34 34 33 32 32 32 33 33 33 33 32 32 31 31 30 30 30 30 30 30 29 29 29 29 30 30 30 30 30 29 29 28 27 27 27 27 26 26 25 25 24 24 23 23 23 23 23 23 23 22 22 22 22 22 22 21 21 21 20 20 19 19 19 19 19 18 18 18 17 17 16 16 17 18 18 19 19
24 28 29 32 35 36 35 35 34 34 33 32 32 33 33 33 34 33 32 32 31 30 30 30 30 30 30 29 29 28 28 28 29 29 29 30 29 29 29 28 28 27 27 26 26 26 26 25 25 24 24 24 24 24 23 23 23 23 22 22 22 22 22 22 22 22 21 21 20 20 20 20 20 19 19 18 18 18 17 18 18 19 19 20 21
22 26 27 30 34 36 35 34 33 33 32 32 32 33 33 33 34 33 32 32 31 31 30 30 30 30 29 29 28 28 27 27 27 28 28 29 29 28 28 28 28 27 27 26 26 26 25 25 25 25 24 24 24 24 24 24 23 23 22 22 22 23 23 23 23 23 22 22 21 21 21 21 20 20 20 19 19 18 19 19 20 20 21 22 22
20 24 26 30 33 35 34 33 32 32 31 32 32 32 32 33 34 33 32 32 31 31 31 30 30 30 29 28 28 27 27 26 26 27 27 27 27 27 27 27 27 27 27 26 26 25 25 25 25 25 25 25 24 24 24 24 24 23 23 22 23 23 23 23 23 23 23 23 23 22 22 22 21 21 21 20 20 19 20 21 21 21 22 23 23
18 21 26 30 33 34 34 33 32 32 31 31 32 32 32 33 33 32 32 31 31 31 30 30 30 29 28 28 27 27 27 26 26 26 27 27 27 27 26 26 26 26 26 25 25 25 25 24 24 25 25 25 25 24 24 25 24 24 23 23 23 23 23 23 24 23 23 23 23 23 23 23 23 22 22 21 21 20 21 22 22 23 24 24 24
16 20 25 29 32 33 33 33 32 32 31 32 32 32 32 32 32 32 32 31 30 30 29 29 29 29 28 28 27 27 26 26 26 26 26 26 26 26 26 26 26 26 25 25 25 24 24 24 24 24 24 24 24 24 24 24 24 24 24 23 23 23 24 24 24 23 23 23 23 23 23 23 23 23 22 22 22 22 22 23 23 24 25 25 25
15 18 23 28 31 32 32 32 31 31 31 32 31 31 32 31 31 31 31 30 29 29 28 28 28 28 28 27 27 27 27 26 26 26 26 26 26 26 26 26 26 26 25 25 25 24 24 24 24 24 24 24 24 24 24 24 24 24 24 24 24 24 24 24 23 23 23 23 23 23 23 23 23 23 23 23 23 23 23 23 24 25 26 26 26
14 17 21 25 29 30 31 31 30 30 31 31 31 31 31 31 31 30 30 29 28 28 27 27 27 27 27 27 27 27 26 26 26 26 26 26 25 25 25 25 25 25 25 25 25 24 24 24 24 24 23 23 24 24 24 24 25 25 25 24 24 25 24 24 24 24 24 24 24 23 23 23 23 23 24 24 24 24 24 24 25 26 27 27 27
13 16 19 23 26 28 28 29 30 30 31 31 31 31 30 30 30 29 28 28 27 27 27 26 26 26 26 26 26 27 26 26 26 26 26 25 25 25 25 25 25 25 25 25 25 25 25 25 24 24 24 24 24 25 25 25 25 25 25 25 25 25 25 25 24 24 24 24 24 24 24 24 24 24 24 24 25 24 24 24 25 26 27 28 28
13 15 18 21 24 26 26 27 28 29 30 30 30 30 30 30 29 28 28 27 27 27 26 25 25 25 25 25 25 26 26 26 26 26 26 26 25 25 25 25 24 24 24 24 25 25 25 25 25 25 25 24 24 25 25 25 25 25 25 25 26 26 26 25 25 25 25 25 24 24 24 24 24 24 24 25 25 25 25 25 26 26 27 27 28
13 14 17 20 22 24 25 26 27 28 28 29 29 30 29 29 28 28 28 27 27 27 26 25 25 25 24 24 25 25 26 26 26 26 26 26 25 25 24 24 24 24 24 24 25 25 25 25 25 25 25 25 25 25 25 25 25 25 26 25 26 26 26 26 26 26 25 24 24 23 23 24 24 24 24 24 24 25 25 26 27 27 27 27 27
13 14 16 18 21 23 24 25 26 26 27 28 28 29 28 28 28 28 28 27 27 27 26 26 25 25 25 25 24 24 25 25 25 25 25 25 25 25 25 24 24 24 25 25 25 25 25 25 25 24 24 24 24 25 25 25 26 26 26 26 26 26 26 26 26 25 25 24 24 24 24 24 24 24 24 24 25 25 26 27 27 27 27 27 27
14 14 15 18 20 22 23 24 25 25 26 26 27 27 27 28 28 28 28 27 27 27 26 26 25 25 25 25 25 24 24 24 24 25 25 25 25 24 24 24 25 25 25 25 25 25 25 25 24 24 23 23 24 24 24 24 25 26 26 26 26 26 26 26 26 26 26 25 25 24 24 24 24 24 25 25 26 26 26 27 27 27 27 27 27
15 15 15 17 19 20 21 23 23 24 25 25 25 26 26 26 27 27 27 27 27 26 25 25 25 25 25 25 25 25 24 24 24 24 24 24 24 24 24 24 24 25 25 25 25 25 25 25 24 24 23 23 23 23 23 23 24 24 25 25 25 26 26 26 26 26 26 26 25 25 25 25 25 25 25 26 26 26 26 26 26 26 26 27 27
15 16 16 17 18 19 20 21 22 23 24 24 24 24 24 25 25 26 26 26 26 25 25 24 23 23 24 24 25 24 24 23 23 23 23 23 24 24 24 24 24 24 24 24 24 24 24 24 23 23 23 23 23 23 22 22 23 23 23 24 24 24 24 24 24 25 24 24 24 24 25 25 25 25 25 25 25 25 24 25 25 25 26 26 25
16 17 17 17 18 19 20 21 22 22 23 23 23 23 23 24 24 24 25 26 25 25 25 25 24 23 24 24 25 24 24 23 23 23 23 22 22 22 22 23 23 22 22 23 23 22 22 22 22 22 22 22 22 22 22 22 22 23 23 23 23 23 23 24 24 24 24 24 23 23 24 24 24 24 23 23 23 23 23 24 25 25 25 24 24
17 18 18 18 19 20 20 21 22 22 23 23 23 23 23 23 23 23 24 25 24 23 24 25 25 25 24 24 24 24 24 24 24 24 23 22 22 21 21 21 22 22 22 22 22 22 22 22 22 21 21 21 21 21 21 21 22 22 23 23 23 23 23 24 24 24 24 23 23 22 22 22 22 22 22 22 23 23 23 24 24 24 24 24 24
Wind_Direction
198 199 201 201 201 201 201 201 200 199 198 198 197 197 196 195 195 195 195 195 195 195 194 192 191 191 190 189 189 189 189 187 184 181 178 176 174 169 166 164 159 156 153 151 147 142 137 135 131 124 118 114 109 105 101 100 100 98 95 91 89 90 92 95 97 99 96 95 97 99 100 99 97 99 103 106 109 107 102 96 91 88 87 87 88
197 198 201 201 202 201 201 202 202 201 200 199 199 199 198 198 197 197 196 196 197 197 196 194 194 193 192 191 191 191 191 190 187 184 182 180 178 175 172 170 167 163 159 157 154 149 143 139 136 130 123 117 112 108 103 100 101 101 97 93 90 90 92 96 98 98 95 96 99 99 98 95 93 98 105 110 113 111 104 98 91 86 82 76 68
198 199 200 202 202 201 201 202 203 203 202 201 201 200 200 199 199 198 198 198 198 198 197 196 196 196 195 194 195 194 193 193 190 187 185 183 182 181 179 176 173 171 166 163 161 158 152 147 143 139 132 125 118 113 108 103 102 102 100 97 93 91 92 96 100 100 96 96 99 99 96 94 92 94 101 106 110 110 104 98 91 81 71 61 46
198 198 199 202 203 203 203 203 203 203 204 202 202 201 201 201 200 200 200 199 199 199 198 197 197 198 198 198 198 197 196 195 194 192 189 188 187 186 185 182 179 177 173 171 169 166 161 156 153 149 143 135 128 122 116 110 107 107 106 102 98 95 93 97 104 104 102 100 99 97 93 92 92 91 93 98 99 100 95 88 84 74 58 46 32
199 199 199 201 203 204 204 203 203 203 204 203 202 202 202 202 201 201 201 201 200 200 199 199 198 199 199 199 199 198 198 197 196 195 193 191 191 190 190 188 185 182 178 176 175 172 168 164 160 157 152 146 139 130 125 120 117 115 113 110 106 101 96 97 104 107 106 104 100 97 94 91 88 82 78 84 87 84 78 73 72 71 61 47 33
202 201 200 201 203 204 205 205 204 204 204 204 203 202 202 203 202 202 202 202 202 201 201 200 199 200 200 199 199 198 197 197 197 197 196 194 193 193 193 191 190 188 183 181 180 177 173 170 166 164 160 156 149 141 136 129 124 123 121 117 113 110 104 100 104 107 108 107 103 98 93 91 86 75 70 70 67 63 63 52 48 56 57 47 30
204 202 202 201 202 203 205 206 206 205 204 204 204 203 203 203 203 202 203 203 202 202 202 202 201 201 201 201 200 200 199 200 201 200 198 197 196 196 196 195 193 193 190 185 183 181 177 175 172 170 168 165 160 156 151 141 133 132 129 123 120 118 114 109 107 108 108 108 105 97 92 92 88 76 69 60 54 58 63 52 40 42 40 30 23
204 202 202 202 202 204 206 207 206 205 204 204 204 204 203 203 203 203 203 203 203 203 204 204 202 202 202 203 202 203 203 203 204 203 201 200 200 199 200 198 196 196 194 190 188 186 183 180 178 176 175 174 173 171 167 159 152 149 144 138 131 124 121 118 113 111 112 110 108 103 93 88 85 74 65 55 48 47 50 57 54 46 36 28 27
206 205 205 205 205 206 207 207 206 205 205 205 205 205 204 203 204 204 203 204 204 204 204 205 204 203 203 204 204 205 205 206 206 204 203 202 202 202 202 202 199 198 197 195 194 193 191 187 187 186 185 184 184 184 182 178 174 171 166 158 149 141 135 130 124 120 120 114 110 108 98 87 77 66 57 48 42 35 33 41 45 41 36 36 35
207 208 207 207 208 209 208 207 207 206 206 206 205 205 205 204 204 205 204 204 205 205 204 205 205 205 204 205 205 206 206 206 206 205 205 205 204 204 205 204 203 201 200 200 199 200 199 197 196 197 197 196 195 195 193 191 190 189 185 179 172 165 154 146 142 135 131 127 116 109 105 96 76 63 55 45 41 35 24 20 27 32 30 33 40
207 208 208 208 209 209 208 207 208 207 207 207 206 206 206 205 205 205 205 205 205 205 204 204 205 205 206 206 206 207 207 207 207 207 207 207 207 207 207 207 206 204 204 204 204 205 204 204 205 207 207 207 205 204 203 200 199 199 198 195 192 188 178 168 165 157 150 147 139 123 108 96 75 57 51 47 42 33 22 11 17 26 22 23 32
208 208 208 207 207 207 208 209 208 208 207 207 207 207 206 206 206 206 206 205 205 205 205 205 205 205 206 207 207 207 207 208 208 208 209 209 209 208 208 208 208 207 207 207 208 208 208 209 211 213 213 213 212 211 210 207 205 205 205 205 205 203 200 194 189 182 174 170 167 155 123 79 49 30 25 31 27 20 13 0 5 18 16 15 23
209 209 209 207 207 208 209 209 208 208 207 207 207 208 208 207 207 207 206 206 206 206 205 205 205 206 206 207 207 207 207 208 209 209 210 210 210 210 209 210 210 209 209 210 211 210 211 211 213 215 216 216 215 214 215 213 212 212 211 213 213 212 212 212 211 208 203 199 197 193 194 246 313 334 337 349 1 7 4 354 359 10 9 11 20
210 209 209 208 209 210 210 210 209 208 208 208 207 208 208 208 207 207 207 207 207 206 206 206 206 207 207 207 207 207 207 208 209 210 211 211 211 211 211 211 212 212 212 212 213 212 213 213 214 215 216 216 215 215 216 216 216 216 216 217 218 219 219 220 221 221 221 219 217 219 227 242 264 277 287 307 329 351 360 360 5 9 8 11 19
211 209 209 210 210 210 210 210 210 209 208 208 208 208 208 208 207 208 208 207 207 207 206 206 207 208 208 208 207 207 207 208 210 211 211 212 212 212 213 213 214 215 215 214 214 214 214 214 214 216 218 218 217 216 218 219 219 217 217 217 219 221 222 223 225 225 227 230 229 235 245 250 262 272 276 282 294 322 350 3 12 15 13 14 18
212 210 209 210 210 209 209 210 211 210 209 208 208 207 207 207 207 208 209 208 208 208 207 208 208 209 209 208 207 208 208 209 210 211 212 212 213 213 214 214 215 216 216 216 216 216 216 216 217 220 222 223 223 223 224 225 223 221 220 220 221 222 223 224 226 227 229 232 233 240 250 255 263 270 272 275 278 283 301 343 15 13 8 11 17
214 212 211 211 210 209 209 210 210 210 209 208 208 207 207 207 207 208 209 210 209 209 208 209 209 209 209 209 208 209 209 210 211 212 212 213 214 215 215 216 216 217 218 218 218 218 218 219 222 225 227 228 229 229 230 230 229 227 226 226 226 227 228 228 229 231 232 233 235 240 249 257 262 266 267 268 272 273 267 268 277 300 335 358 9
215 214 213 211 210 210 209 209 210 210 210 209 207 207 208 208 208 208 209 210 210 210 209 209 209 210 210 210 209 210 210 211 211 212 212 212 213 214 215 216 217 218 218 219 220 221 221 222 224 227 229 231 233 234 235 234 233 232 230 230 231 230 231 232 231 232 234 236 239 242 249 256 260 264 266 262 262 264 261 257 259 261 264 276 314
215 214 213 211 211 211 210 209 210 210 211 210 209 208 209 209 210 210 210 211 211 211 210 210 210 210 211 211 210 211 211 212 212 212 212 212 212 214 215 216 217 217 218 220 222 222 223 224 226 229 231 234 235 237 238 237 236 235 233 233 233 232 233 233 233 234 236 239 244 247 250 254 258 262 264 261 258 258 257 255 257 260 261 260 269
215 214 214 212 212 212 211 210 210 210 210 210 209 209 209 209 210 211 211 211 212 212 211 210 210 211 211 212 211 212 212 212 212 212 212 213 213 214 215 216 217 218 219 220 222 223 224 226 228 230 232 235 237 238 239 238 237 236 235 234 233 232 233 234 235 237 240 243 246 249 252 254 257 260 263 262 261 258 256 255 257 261 263 264 268
216 215 214 213 213 212 212 212 210 209 210 210 210 209 209 210 210 211 211 212 212 212 212 211 211 211 211 212 212 212 213 213 214 214 214 214 214 215 215 216 216 218 219 220 222 224 225 227 230 232 234 236 238 239 238 238 237 236 235 235 233 232 234 235 237 239 242 245 249 251 254 256 257 259 260 260 260 258 257 256 258 261 264 267 270
216 215 214 213 213 212 211 211 209 209 210 211 211 210 209 210 211 211 211 212 212 212 212 212 211 211 212 212 212 213 214 214 214 215 215 215 216 216 216 216 217 218 219 221 222 224 227 229 232 234 236 237 239 239 238 237 236 235 234 234 233 233 235 236 239 241 243 246 250 253 256 258 258 259 259 258 257 256 255 256 259 264 268 271 274
217 215 214 213 213 213 211 209 209 209 210 211 211 210 210 210 211 211 211 212 213 213 213 212 211 212 212 212 213 214 214 214 215 215 216 216 217 217 217 217 217 219 220 221 223 225 228 231 234 236 237 238 239 239 238 236 236 235 235 234 234 234 236 238 240 243 244 247 251 254 257 258 258 259 259 258 257 256 254 256 260 266 271 275 278
217 216 214 212 212 211 210 209 209 210 211 212 212 211 211 211 211 212 212 212 213 213 213 212 212 212 212 213 213 214 214 214 215 216 217 217 217 218 218 218 218 219 220 222 224 226 229 232 235 237 238 238 238 238 237 236 236 235 235 235 234 235 237 240 242 244 246 249 252 255 258 259 258 259 259 258 257 257 257 259 263 268 272 276 279
216 216 214 212 210 210 210 210 210 210 212 213 213 212 211 211 211 212 213 213 212 213 214 213 212 212 213 213 214 215 215 215 216 217 217 217 218 218 219 219 219 220 221 223 225 228 231 233 235 237 238 238 237 237 237 237 236 236 235 235 236 237 239 241 243 244 246 250 253 256 258 259 259 258 257 256 256 256 258 261 265 269 273 278 281
217 217 216 214 212 212 211 211 211 210 211 213 214 213 212 211 211 212 213 213 213 213 214 213 213 213 214 214 214 215 216 216 216 217 217 218 218 218 219 219 220 221 223 224 226 229 231 233 235 236 237 237 237 237 238 238 237 236 236 236 237 239 241 243 243 243 246 250 253 255 258 258 258 256 254 254 255 256 259 262 265 270 275 279 283
219 218 217 216 215 213 212 211 211 210 210 212 213 213 212 211 211 212 212 213 213 213 213 214 214 214 214 215 215 216 216 217 217 217 218 218 218 219 219 220 221 222 223 225 227 230 232 233 234 235 236 237 237 237 237 238 237 236 236 237 237 239 241 242 242 242 245 248 251 253 255 256 256 254 252 253 255 257 260 264 268 273 277 281 284
219 218 218 217 216 214 212 212 211 210 210 211 212 212 212 212 211 211 212 213 213 213 213 213 213 214 215 215 215 216 217 217 218 218 219 219 219 219 220 220 221 222 223 225 227 229 231 233 234 235 235 236 236 236 236 236 237 236 236 236 237 239 240 240 241 242 244 246 248 250 252 254 254 253 252 254 256 258 262 267 271 275 278 281 285
219 218 217 217 215 214 212 210 210 209 209 210 211 211 211 211 211 211 211 212 213 213 213 213 213 214 215 215 215 216 217 218 218 219 220 220 220 220 221 221 222 222 224 225 227 228 230 232 233 234 234 235 236 236 235 235 235 235 235 235 237 238 239 240 240 242 244 246 247 248 251 253 252 252 253 255 258 261 264 268 271 275 279 282 286
220 217 217 217 216 214 212 209 208 208 209 209 210 211 211 211 211 211 211 212 213 213 213 213 213 214 214 215 215 216 217 218 219 220 221 221 222 222 222 222 222 223 224 225 227 228 230 231 232 233 233 234 235 235 234 233 234 234 234 235 236 238 239 239 240 242 243 245 246 248 251 252 252 252 253 256 260 262 265 268 271 275 279 283 287
225 221 219 217 216 214 211 208 207 207 208 209 211 211 211 211 211 211 211 211 212 213 212 212 213 214 214 215 215 217 218 219 220 221 222 222 223 223 223 223 223 224 224 225 226 228 229 231 232 232 233 234 235 235 234 234 234 235 235 236 236 238 238 239 240 241 243 244 246 249 252 252 252 253 256 258 261 264 266 269 271 274 277 281 286
229 226 220 216 215 213 210 207 207 207 208 210 211 211 211 211 211 211 210 211 212 212 212 212 212 213 214 215 216 217 218 219 220 221 222 223 223 224 224 223 223 224 224 225 226 227 228 230 231 232 233 233 235 235 235 235 235 236 236 237 238 238 238 239 239 240 242 244 246 249 251 252 252 254 258 261 263 265 267 269 272 274 277 280 284
232 228 222 216 214 212 209 207 207 207 208 210 211 211 211 211 210 210 210 210 212 212 212 212 212 213 213 214 215 217 218 219 220 220 221 222 223 223 223 223 224 224 225 226 227 228 228 229 230 232 233 234 235 236 235 236 236 236 237 238 239 239 239 239 239 240 242 244 246 250 252 253 254 255 258 262 265 267 268 270 272 276 279 281 284
233 228 222 217 213 212 209 207 207 207 207 209 210 210 210 209 208 209 209 209 211 212 212 213 213 213 213 213 215 216 218 219 219 220 220 221 222 222 223 223 224 225 225 226 227 228 229 229 230 232 233 235 236 236 236 237 238 238 238 239 240 240 240 240 240 241 243 245 248 251 253 254 255 256 259 262 264 267 269 272 275 279 283 285 286
232 225 221 215 211 210 207 205 204 204 204 207 208 209 208 207 207 208 208 209 210 211 213 213 214 214 213 213 215 216 218 219 220 220 220 220 221 221 222 223 224 225 226 227 228 228 229 230 231 232 233 235 236 236 236 237 238 239 239 241 242 242 241 241 241 242 244 247 250 253 255 255 255 256 258 260 263 266 269 273 278 283 287 289 291
229 222 218 213 208 207 206 204 202 202 204 207 208 208 207 207 207 207 208 208 209 211 213 213 214 214 213 213 215 216 217 219 219 220 220 220 220 220 221 223 224 226 227 228 228 229 230 230 231 232 234 235 237 236 236 237 238 239 240 242 242 242 241 241 242 244 246 249 251 253 255 255 255 256 258 259 262 265 269 274 279 284 288 291 293
225 218 213 207 204 203 202 200 200 201 204 207 207 207 207 206 206 207 207 208 209 211 212 213 213 213 213 213 214 215 216 217 217 218 218 218 219 220 221 222 224 226 227 227 227 228 230 231 231 232 233 235 237 237 237 238 239 239 240 241 241 241 241 242 243 246 248 250 252 253 254 254 254 255 257 259 261 265 270 274 279 284 288 291 294
218 213 207 201 199 199 199 199 200 202 204 206 206 205 205 205 205 206 207 207 209 211 212 212 212 212 212 212 213 213 214 215 215 216 216 217 218 219 221 222 223 225 226 227 227 229 230 231 232 233 234 236 238 238 237 238 239 238 239 241 241 240 241 243 244 246 248 250 252 252 253 254 254 255 257 259 262 265 270 274 278 283 288 291 294
212 209 204 199 198 198 199 200 201 202 203 203 203 203 203 204 205 206 206 207 209 211 212 212 212 212 212 212 213 214 214 215 215 215 216 217 218 219 220 221 222 224 225 227 228 229 231 232 233 234 235 236 238 239 238 238 238 238 239 240 240 240 241 243 244 246 249 251 252 253 253 252 253 255 257 260 262 266 270 274 278 284 288 290 293
208 206 202 198 198 198 199 200 202 203 203 201 200 201 202 203 204 206 206 207 209 210 211 212 212 212 212 212 213 214 215 215 216 217 218 218 219 220 221 221 222 224 225 227 228 230 231 233 234 235 236 236 238 239 238 237 238 238 238 239 240 240 241 242 244 246 249 251 252 254 253 252 253 255 257 260 263 266 270 274 278 282 286 289 291
204 203 200 198 198 198 199 200 201 202 201 199 199 200 201 202 204 205 206 207 208 209 210 211 212 213 213 213 214 215 215 216 217 218 219 220 221 221 222 222 224 225 226 228 229 231 232 234 235 236 237 237 238 239 238 237 237 238 238 239 240 241 241 243 245 247 249 252 253 254 254 253 253 255 258 261 264 267 270 274 277 281 284 287 290
200 199 197 196 196 197 198 199 200 200 199 199 199 200 201 202 204 205 206 207 207 208 209 210 211 212 213 214 214 215 216 217 218 218 219 221 221 222 223 224 225 227 228 229 231 232 234 236 237 238 239 239 239 240 240 239 239 239 239 239 240 241 242 244 246 248 250 253 254 254 254 254 254 256 259 262 265 268 271 274 277 280 284 287 290
196 196 196 195 195 196 198 199 199 198 198 199 200 201 202 203 204 205 205 206 206 207 208 209 211 212 213 214 214 215 216 218 218 219 220 221 222 223 224 225 226 227 229 231 232 234 235 237 239 240 241 241 241 242 243 242 241 241 241 240 241 242 244 245 247 250 251 253 255 255 255 254 255 257 260 263 266 269 272 274 277 280 284 287 289
194 196 196 195 195 196 197 198 197 197 199 200 201 201 202 203 204 204 205 205 206 206 207 209 210 211 213 214 215 216 217 218 219 220 221 223 223 224 225 226 227 228 230 232 233 235 237 238 240 241 241 242 242 243 244 244 244 243 243 242 242 243 245 247 248 250 252 254 255 255 254 255 256 258 261 264 267 270 272 275 277 280 284 286 288
193 194 195 194 193 194 195 195 196 197 199 201 202 201 202 203 204 204 205 205 205 206 207 208 210 211 212 213 215 216 217 219 220 221 222 224 225 226 227 228 229 230 231 233 235 237 238 240 241 242 243 243 243 244 245 245 245 245 244 244 243 244 246 247 249 250 252 253 253 253 254 255 257 259 262 265 268 271 273 276 278 281 283 286 288
194 193 193 192 191 191 191 192 194 197 199 200 201 201 201 202 203 204 205 205 205 206 208 209 211 211 212 213 214 216 218 220 221 222 223 225 226 228 229 230 231 232 233 235 236 238 239 241 243 244 244 245 245 245 246 246 246 247 247 246 245 246 247 248 249 250 250 250 251 252 253 255 258 260 263 267 270 272 274 276 279 282 284 286 288
197 195 192 190 188 188 189 190 192 196 198 198 199 200 200 201 202 203 204 205 206 208 210 211 213 213 213 213 214 216 218 219 220 222 224 225 227 229 230 231 232 233 235 236 238 239 240 242 244 245 245 246 247 247 247 247 248 248 248 247 247 248 248 248 248 249 249 249 251 253 255 257 260 263 265 268 270 272 275 277 279 281 283 285 287
199 197 194 190 187 188 188 188 190 193 195 195 196 197 198 199 200 202 203 204 206 208 209 210 211 212 213 213 215 216 218 219 221 222 224 226 227 229 231 232 233 234 236 237 238 239 240 242 243 245 246 247 248 249 248 247 247 248 248 248 248 248 248 248 248 248 249 250 252 254 257 259 262 264 266 268 270 272 275 277 278 280 283 286 287
202 200 197 194 192 191 190 189 190 193 193 194 194 196 197 198 199 201 202 204 206 208 208 209 210 212 213 214 215 217 219 220 222 223 225 228 229 230 232 233 234 235 236 237 238 239 240 242 244 245 246 247 249 249 248 247 247 247 248 248 248 248 248 248 247 247 249 250 252 254 256 259 261 263 265 267 270 272 274 275 278 281 284 286 287
205 204 201 199 199 198 195 194 195 195 195 195 195 196 198 199 200 202 204 205 208 211 211 212 213 214 215 215 217 219 220 221 223 224 225 227 229 230 232 233 233 234 236 237 238 240 241 242 244 245 246 247 248 248 247 246 246 246 246 247 247 247 247 246 246 246 247 249 251 253 255 257 260 262 264 267 269 271 272 275 279 282 285 286 288
208 206 205 205 205 204 201 199 199 199 198 197 197 199 201 203 204 207 208 208 210 213 213 214 215 216 217 218 219 221 223 225 226 226 225 226 227 229 232 233 233 234 235 237 238 240 241 242 242 243 244 245 246 246 245 245 246 245 245 245 245 245 245 245 245 245 246 247 249 251 254 257 260 262 265 267 269 271 273 276 280 283 284 286 288